Terminal Aerodrome Forecast
Issued by NWS Sterling, VA

Home | Current Version | Previous Version | Text Only | Print | Product List | Glossary On
Versions: 1 2 3 4 5 6 7 8 9 10 11 12 13 14 15 16 17 18 19 20 21 22 23 24 25
466
FTUS41 KLWX 142042 AAA
TAFDCA
TAF AMD
KDCA 142042Z 1421/1518 03006KT P6SM BKN100 OVC200
     FM150600 15006KT 6SM -SN OVC050
     FM150800 15006KT 3SM -SN BKN008 OVC025
     FM151400 13006KT 2SM -SN OVC008=

USA.gov is the U.S. government's official web portal to all federal, state and local government web resources and services.